Weather History for Magadan, Russia

Change the Weather History Date:

Friday, March 8, 2013

  Actual Average Record
Temperature  
Mean Temperature -19 °F -  
Max Temperature 0 °F 15 °F 28 °F (2007)
Min Temperature -38 °F -7 °F -38 °F (1998)
Degree Days  
Heating Degree Days 84    
Moisture  
Dew Point -30 °F    
Average Humidity 46    
Maximum Humidity 75    
Minimum Humidity 29    
Precipitation  
Precipitation 0.00 in - - ()
Sea Level Pressure  
Sea Level Pressure 29.49 in    
Wind  
Wind Speed 4 mph ()    
Max Wind Speed 13 mph    
Max Gust Speed 22 mph    
Visibility 6.2 miles    
Events      
Averages and records for this station are not official NWS values.
T = Trace of Precipitation, MM = Missing Value Source: Averaged Metar Reports

Daily Weather History Graph

Daily Weather History Graph

Search for Another Location

Airport:

Trip Planner

Search our weather history database for the weather conditions in past years. The results will help you decide how hot, cold, wet, or windy it might be!

Date:

Astronomy

Mar. 08, 2013 Rise Set
Actual Time 8:35 AM MAGT 7:41 PM MAGT
Civil Twilight 7:54 AM MAGT 8:22 PM MAGT
Nautical Twilight 7:06 AM MAGT 9:11 PM MAGT
Astronomical Twilight 6:16 AM MAGT 10:01 PM MAGT
Moon 6:43 AM MAGT (3/8) 3:02 PM MAGT (3/8)
Length of Visible Light 12h 28m
Length of Day
11h 05m
Waning Crescent, 17% of the Moon is Illuminated
Mar 8
Waning Crescent
Mar 12
New
Mar 20
First Quarter
Mar 27
Full
Apr 3
Last Quarter

Hourly Weather History & Observations

Time (MAGT) Temp. Windchill Dew Point Humidity Pressure Visibility Wind Dir Wind Speed Gust Speed Precip Events Conditions
12:00 AM -9 °F - -21 °F 39% 29.65 in 31 mi East 6.7 mph - -  
12:00 AM -20.2 °F - -31.0 °F 58% 29.56 in 6.2 mi Calm Calm - N/A   Clear
1:00 AM -25.6 °F - -34.6 °F 63% 29.59 in 6.2 mi Calm Calm - N/A   Clear
2:00 AM -29.2 °F - -38.2 °F 62% 29.59 in 6.2 mi Calm Calm - N/A   Clear
3:00 AM -31.0 °F - -38.2 °F 68% 29.59 in 6.2 mi East 2.2 mph - N/A   Clear
4:00 AM -34.6 °F - -41.8 °F 68% 29.59 in 6.2 mi Calm Calm - N/A   Clear
5:00 AM -34.6 °F -50.0 °F -40.0 °F 75% 29.56 in 6.2 mi ESE 4.5 mph - N/A   Clear
6:00 AM -11 °F - -24 °F 33% 29.65 in 31 mi ENE 8.9 mph - -  
6:00 AM -34.6 °F - -41.8 °F 68% 29.56 in 6.2 mi Calm Calm - N/A   Clear
7:00 AM -36.4 °F - -43.6 °F 67% 29.56 in 6.2 mi ESE 2.2 mph - N/A   Clear
8:00 AM -38.2 °F - -45.4 °F 67% 29.56 in 6.2 mi Calm Calm - N/A   Partly Cloudy
8:30 AM -38.2 °F - -43.6 °F 74% 29.56 in 6.2 mi Calm Calm - N/A   Partly Cloudy
9:00 AM -36.4 °F - -43.6 °F 67% 29.56 in 6.2 mi ESE 2.2 mph - N/A   Scattered Clouds
9:30 AM -32.8 °F - -40.0 °F 68% 29.56 in 6.2 mi Calm Calm - N/A   Scattered Clouds
10:00 AM -27.4 °F -41.6 °F -34.6 °F 69% 29.53 in 6.2 mi ESE 4.5 mph - N/A   Scattered Clouds
10:30 AM -22.0 °F - -31.0 °F 63% 29.53 in 6.2 mi SE 2.2 mph - N/A   Partly Cloudy
11:00 AM -18.4 °F - -31.0 °F 53% 29.53 in 6.2 mi ESE 2.2 mph - N/A   Scattered Clouds
11:30 AM -16.6 °F - -31.0 °F 48% 29.50 in 6.2 mi East 2.2 mph - N/A   Scattered Clouds
12:00 PM -8 °F - -22 °F 33% 29.58 in 31 mi ENE 13.4 mph - -   Scattered Clouds
12:00 PM -13.0 °F - -29.2 °F 44% 29.50 in 6.2 mi Calm Calm - N/A   Scattered Clouds
12:30 PM -7.6 °F - -27.4 °F 38% 29.50 in 6.2 mi SE 2.2 mph - N/A   Partly Cloudy
1:00 PM -4.0 °F - -27.4 °F 32% 29.47 in 6.2 mi SSE 2.2 mph - N/A   Partly Cloudy
1:30 PM -2.2 °F -15.4 °F -25.6 °F 32% 29.47 in 6.2 mi NE 6.7 mph - N/A   Partly Cloudy
2:00 PM -2.2 °F -12.2 °F -25.6 °F 32% 29.44 in 6.2 mi NE 4.5 mph - N/A   Clear
2:30 PM -0.4 °F -13.2 °F -25.6 °F 30% 29.44 in 6.2 mi NNE 6.7 mph - N/A   Clear
3:00 PM -0.4 °F -15.5 °F -23.8 °F 32% 29.44 in 6.2 mi North 8.9 mph - N/A   Clear
3:30 PM -0.4 °F -13.2 °F -23.8 °F 32% 29.42 in 6.2 mi NNE 6.7 mph 17.9 mph N/A   Clear
4:00 PM -0.4 °F -13.2 °F -23.8 °F 32% 29.42 in 6.2 mi NNE 6.7 mph - N/A   Clear
4:30 PM -0.4 °F -15.5 °F -23.8 °F 32% 29.42 in 6.2 mi NNE 8.9 mph - N/A   Clear
5:00 PM -0.4 °F -15.5 °F -25.6 °F 30% 29.39 in 6.2 mi NNE 8.9 mph - N/A   Clear
5:30 PM -2.2 °F -17.7 °F -25.6 °F 32% 29.39 in 6.2 mi North 8.9 mph - N/A   Clear
6:00 PM -2 °F - -18 °F 29% 29.47 in 31 mi ENE 13.4 mph - -   Clear
6:00 PM -2.2 °F -15.4 °F -25.6 °F 32% 29.39 in 6.2 mi NNE 6.7 mph - N/A   Clear
6:30 PM -4.0 °F -19.9 °F -25.6 °F 35% 29.39 in 6.2 mi NNE 8.9 mph - N/A   Clear
7:00 PM -4.0 °F -17.5 °F -25.6 °F 35% 29.39 in 6.2 mi NNE 6.7 mph - N/A   Clear
7:30 PM -5.8 °F -19.7 °F -27.4 °F 35% 29.39 in 6.2 mi NNE 6.7 mph - N/A   Clear
8:00 PM -7.6 °F -21.9 °F -27.4 °F 38% 29.39 in 6.2 mi NNE 6.7 mph - N/A   Clear
9:00 PM -7.6 °F -21.9 °F -27.4 °F 38% 29.39 in 6.2 mi NE 6.7 mph - N/A   Clear
10:00 PM -7.6 °F -24.4 °F -29.2 °F 34% 29.39 in 6.2 mi NNE 8.9 mph 22.4 mph N/A   Clear
11:00 PM -9.4 °F -24.0 °F -29.2 °F 37% 29.39 in 6.2 mi NNE 6.7 mph - N/A   Clear